Theta_e
281 279 277 277 277 277 276 275 275 275 275 275 275 276 278 279 279 279 278 280 280 280 281 281 281 282 283 284 286 287 287 288 291 292 292 291 291 292 291 291 291 291 290
280 278 277 277 277 277 275 274 275 275 275 275 275 276 277 279 279 279 277 279 279 280 280 280 280 281 282 283 286 287 287 287 289 291 291 290 291 291 291 290 290 290 290
279 277 276 276 277 276 275 274 275 274 274 274 275 276 277 279 279 278 277 277 277 279 279 279 280 280 281 283 286 287 286 287 288 289 290 289 289 289 289 289 289 288 288
278 277 276 276 276 276 275 274 274 274 274 274 274 276 277 278 279 278 277 276 277 276 277 278 279 280 280 283 286 287 286 287 287 290 289 288 288 288 289 288 287 287 286
277 276 276 276 275 275 274 273 274 273 273 273 274 276 277 278 279 278 277 275 277 276 276 277 279 281 282 283 286 286 286 286 286 287 289 288 288 288 288 288 286 286 285
277 276 275 275 275 274 273 273 273 272 272 273 274 275 275 276 279 278 276 275 275 275 275 276 278 281 283 283 285 286 285 285 285 286 286 287 286 287 288 287 286 286 283
276 275 275 274 274 273 273 272 272 272 272 272 273 274 274 275 277 278 276 274 275 274 274 274 276 280 282 284 286 286 285 285 285 284 285 285 285 286 287 286 287 287 285
275 275 274 274 273 273 273 272 272 272 272 272 272 273 273 274 276 277 275 273 274 274 273 274 276 279 281 284 285 286 285 284 284 284 284 284 284 286 287 288 287 285 285
275 274 274 273 273 273 272 272 272 272 272 272 273 273 273 274 274 276 275 273 273 273 273 274 276 279 281 283 284 285 284 284 284 283 283 284 285 286 286 286 285 285 285
275 275 274 273 273 273 272 272 272 272 272 272 273 273 273 273 275 275 275 273 273 271 272 275 277 279 281 282 282 283 284 283 283 283 283 283 284 284 285 286 286 286 285
275 274 273 273 273 273 272 272 271 271 272 272 273 273 273 273 274 274 274 272 272 271 271 274 276 278 279 281 281 282 283 283 283 283 283 283 282 282 282 283 285 285 285
274 273 272 272 272 272 272 271 271 271 271 272 272 273 273 273 273 273 273 272 273 271 271 273 274 276 278 279 279 281 283 283 282 282 282 282 282 281 281 282 282 283 284
273 272 272 271 272 272 271 271 271 271 271 271 271 272 273 273 272 272 272 271 271 272 273 272 273 278 279 281 281 281 282 281 281 281 281 281 281 281 281 281 281 281 283
271 271 271 271 271 271 271 271 271 271 271 271 271 272 272 273 273 272 271 270 270 272 274 276 276 278 278 279 280 280 280 279 279 280 281 281 281 281 281 282 282 281 281
271 270 270 271 271 271 271 271 271 271 271 271 271 271 272 273 273 272 272 269 269 270 274 276 276 276 276 277 277 278 279 280 279 279 280 280 281 281 282 282 282 282 281
269 269 270 270 271 271 270 270 271 272 272 272 272 272 272 273 273 271 271 269 269 270 273 271 269 270 270 271 272 274 277 277 277 278 279 279 279 280 281 282 282 282 283
270 269 270 270 270 270 270 271 271 271 271 271 271 272 272 272 272 271 269 269 268 270 269 267 267 267 268 270 271 271 273 274 276 277 277 278 279 280 280 281 281 281 281
271 271 271 271 271 271 271 271 271 271 270 269 270 269 271 271 270 269 269 270 270 269 268 267 267 267 268 269 270 271 272 274 275 277 277 277 279 278 279 279 280 279 280
271 270 271 271 272 271 271 271 270 269 269 269 269 269 269 269 268 269 269 270 269 269 268 268 268 268 267 268 270 271 272 273 273 275 276 277 277 278 278 278 279 279 280
271 271 271 272 271 271 270 269 269 269 269 269 269 269 269 268 268 268 269 269 268 268 268 268 268 268 268 268 269 270 272 273 274 274 275 276 277 278 278 278 279 280 279
270 270 272 271 270 270 270 269 269 269 269 268 268 268 268 269 268 268 268 268 268 268 268 268 269 269 269 269 269 269 270 271 272 273 274 275 276 278 278 278 279 279 280
270 271 271 270 270 270 270 270 269 269 269 269 268 268 268 269 268 268 267 267 268 267 267 268 269 269 270 270 269 269 269 270 271 272 273 274 276 277 278 279 279 279 279
271 270 269 270 270 270 270 270 269 269 269 268 268 268 268 268 267 268 267 267 267 268 267 267 267 269 269 270 270 270 270 269 269 270 272 274 275 277 278 278 279 279 279
271 270 270 270 270 270 270 269 269 269 269 268 267 267 267 268 267 267 267 267 267 267 267 267 267 267 269 269 270 270 270 269 269 269 270 273 275 276 278 278 278 279 280
270 270 270 270 270 270 270 270 269 269 269 268 268 267 267 267 268 268 267 267 267 267 267 267 267 268 268 268 269 270 270 269 270 270 270 271 274 275 277 278 278 279 280
270 270 270 270 270 271 270 270 269 269 269 269 268 268 267 267 268 268 268 267 267 267 267 267 267 268 268 268 269 270 270 270 271 271 271 271 272 275 276 277 278 279 279
Wind_Speed
11 8 6 3 3 6 9 10 13 14 15 16 17 15 18 21 24 21 22 20 21 21 23 29 27 28 30 31 28 25 21 17 4 5 7 4 2 4 5 6 8 9 11
12 10 7 4 3 5 8 9 12 13 14 16 16 14 16 20 23 23 26 19 21 21 22 29 29 30 30 31 27 27 23 20 9 6 5 5 4 4 6 6 7 8 9
15 12 9 6 4 5 7 8 10 12 14 15 15 14 15 19 21 21 26 19 21 19 21 24 27 28 30 33 29 27 26 24 14 6 4 5 4 7 8 8 8 8 8
18 14 10 7 5 5 6 7 10 12 13 14 13 13 15 19 20 21 25 20 21 22 20 23 24 27 29 33 29 26 27 24 20 14 6 5 5 4 6 9 7 7 8
21 17 13 9 7 6 7 6 9 11 12 12 10 11 14 21 22 22 23 19 19 24 22 23 22 25 27 28 30 27 25 23 19 16 9 7 5 4 2 5 8 10 8
23 19 16 12 10 9 8 6 8 10 11 11 12 12 13 19 21 20 21 19 16 22 22 24 23 25 30 33 27 23 21 22 18 16 11 8 13 6 3 7 15 8 3
25 22 19 15 12 11 10 7 9 11 12 14 14 12 15 17 20 20 21 19 15 21 21 24 24 25 31 34 26 23 23 19 18 14 12 14 11 11 3 10 8 6 4
29 25 21 18 16 13 11 10 10 11 13 15 17 14 13 17 20 22 21 20 17 20 19 20 20 26 30 30 25 24 23 21 18 18 15 14 13 9 4 6 8 13 15
33 29 25 21 19 16 14 12 11 11 12 15 16 16 15 16 20 23 22 22 19 23 18 18 19 24 26 25 24 23 22 22 19 18 18 15 12 10 9 10 14 13 6
37 32 27 23 20 18 16 14 12 10 11 11 13 15 17 17 21 23 23 22 17 23 16 16 19 22 21 24 21 21 20 21 20 19 18 20 21 15 11 6 3 3 8
37 33 29 25 21 19 17 14 12 10 9 12 12 14 17 18 21 23 22 22 20 19 17 20 23 21 20 22 21 21 17 16 19 19 17 18 18 19 16 13 9 8 7
39 35 31 27 24 21 18 15 11 9 9 10 12 16 19 20 18 22 21 20 18 16 16 17 19 18 17 19 21 19 17 18 22 23 21 22 19 18 16 16 13 11 9
41 37 33 29 25 22 19 17 13 10 9 10 11 16 19 20 21 22 21 20 17 16 15 13 14 15 17 18 21 21 22 23 24 24 22 21 17 9 15 17 15 15 15
43 39 35 31 28 24 19 16 14 11 10 10 11 13 17 21 20 24 25 23 19 17 14 13 14 16 19 20 21 25 25 25 25 24 21 19 15 19 16 11 12 15 21
42 40 37 33 30 26 21 17 14 11 8 8 8 9 15 18 18 18 20 21 18 15 13 16 19 21 23 25 26 26 28 27 29 26 23 21 19 16 19 17 20 20 19
39 37 36 36 32 28 25 19 10 7 7 5 5 7 10 10 12 14 17 17 16 14 17 23 24 24 25 25 26 27 27 27 28 26 24 23 22 19 17 17 19 19 19
39 37 38 37 35 32 28 25 22 13 8 7 5 6 7 8 9 10 13 16 18 17 24 22 22 21 21 22 23 23 24 24 25 27 26 24 23 21 17 17 16 15 15
39 43 42 40 37 34 31 26 21 18 15 9 7 5 6 6 6 10 9 14 22 23 23 22 21 19 19 19 20 21 22 24 26 27 28 27 24 22 17 18 16 14 14
43 41 40 40 38 34 30 25 20 17 13 11 9 6 4 5 4 6 8 13 17 19 20 20 19 18 17 16 16 17 19 21 24 26 28 28 25 24 24 20 17 14 14
40 43 42 41 38 33 29 26 22 19 17 13 10 7 5 3 2 3 6 8 10 12 15 17 18 17 17 16 14 15 16 18 22 25 26 26 26 24 23 21 17 15 13
40 41 42 40 38 35 32 29 25 22 19 14 11 9 4 5 3 2 3 3 6 8 10 12 14 16 17 16 14 13 14 16 18 20 23 25 27 26 23 21 18 15 12
42 43 42 40 39 36 33 28 24 21 19 16 14 11 9 6 5 4 3 2 2 3 5 8 10 13 15 17 17 15 14 14 15 17 19 21 24 24 23 21 20 18 15
42 42 38 38 38 35 31 27 24 22 19 17 16 14 12 9 8 6 6 5 3 1 2 4 5 8 10 13 15 16 14 14 14 14 16 18 21 23 22 21 19 19 17
43 41 41 39 37 35 32 30 25 22 19 17 16 15 13 11 10 8 8 7 6 3 2 1 2 3 6 8 10 13 13 13 13 12 12 13 16 19 20 20 18 17 16
42 40 40 40 39 37 33 30 27 24 21 19 17 15 14 14 13 12 11 10 8 7 5 3 2 2 2 3 5 7 10 12 13 13 12 9 10 13 17 18 19 17 16
40 41 40 40 39 37 35 32 29 26 23 20 18 16 15 15 14 14 14 12 11 10 8 7 5 4 3 2 2 3 5 8 12 12 11 9 6 7 12 14 17 18 15
Wind_Direction
173 176 168 123 45 19 13 16 18 15 14 14 12 16 18 17 16 13 2 359 358 359 0 356 358 358 357 356 354 354 353 352 324 333 19 65 83 85 102 95 89 89 85
177 177 168 140 72 34 25 25 25 24 21 21 16 20 21 21 21 10 9 2 0 356 359 356 3 360 359 356 353 356 351 354 334 317 3 27 109 126 117 109 95 88 88
178 178 170 149 105 56 40 33 37 32 28 26 24 28 23 20 23 6 5 6 9 2 356 356 2 1 356 353 356 359 353 356 358 324 339 34 79 137 128 122 106 104 101
177 176 174 158 129 87 64 52 48 41 34 28 30 32 30 25 20 10 4 4 357 3 1 2 5 5 356 353 357 0 360 1 2 10 27 43 65 123 149 136 111 101 91
176 177 176 161 137 112 91 70 58 49 38 34 40 43 39 30 8 11 4 4 353 356 3 3 7 8 6 1 1 7 9 7 9 15 22 39 41 75 132 164 122 117 89
178 176 173 163 147 131 111 92 71 57 51 49 49 42 31 33 10 8 6 4 359 355 355 358 7 11 14 8 5 16 19 18 14 20 17 19 26 27 98 140 137 119 87
177 175 171 166 154 136 122 110 87 71 57 52 46 45 37 32 14 11 7 9 6 1 358 357 359 12 16 2 12 24 22 27 29 32 27 27 14 15 58 136 124 97 113
176 174 172 167 155 146 132 123 102 90 68 54 48 45 37 30 14 11 6 10 11 2 2 360 1 8 9 1 14 24 26 29 27 31 34 34 28 28 82 168 149 119 123
176 176 174 169 159 152 142 130 112 96 76 59 48 42 37 35 15 12 7 11 11 360 3 11 13 11 3 4 18 19 25 26 31 37 38 41 44 51 68 104 118 122 87
179 176 173 168 163 153 146 134 121 102 81 68 54 47 38 37 27 13 10 14 6 358 9 23 24 11 4 10 19 20 23 21 22 27 32 39 43 47 52 67 116 133 113
176 172 170 167 162 155 147 136 123 111 100 83 64 54 48 37 30 17 17 15 10 11 18 22 23 6 9 17 23 24 24 29 33 35 35 40 38 38 51 57 81 138 123
172 170 168 166 163 158 150 142 137 126 111 90 67 56 49 39 29 19 20 20 17 22 22 25 16 8 17 27 30 29 37 41 39 33 31 30 33 37 53 60 68 84 108
170 171 168 166 163 160 155 148 145 132 107 83 64 50 44 41 29 20 23 23 24 31 29 20 20 35 43 44 41 42 42 41 39 32 20 25 38 49 58 63 70 80 95
167 169 168 167 164 162 161 157 150 135 109 84 69 53 46 42 28 22 16 26 33 41 45 51 49 49 49 46 45 43 43 42 40 35 19 35 53 53 64 63 65 70 84
165 168 169 170 168 165 166 162 151 134 102 79 65 56 42 39 32 27 25 22 26 38 56 60 52 45 42 42 44 42 40 40 40 37 37 29 39 60 60 65 77 80 79
160 165 169 170 171 170 165 157 151 141 134 113 87 49 54 43 36 34 37 34 42 52 61 55 49 44 38 31 31 36 37 36 39 39 40 41 39 42 64 60 68 86 91
163 166 170 172 174 173 174 168 157 156 140 118 106 79 56 49 42 43 43 48 53 60 63 57 50 41 36 34 30 30 31 34 40 43 42 42 45 43 53 69 64 72 80
169 173 173 176 178 180 180 179 175 173 174 166 140 114 89 68 60 52 45 50 57 57 58 55 51 42 36 33 30 27 30 37 40 42 42 44 44 46 35 54 69 74 77
174 173 177 179 183 184 181 178 181 182 189 184 179 168 142 107 84 68 53 54 57 59 56 54 50 45 38 36 30 30 29 33 37 40 40 42 41 45 48 53 65 65 72
177 179 181 180 182 181 179 179 179 181 184 188 182 173 159 137 153 97 74 58 57 56 55 53 51 46 40 35 31 28 31 30 35 37 38 37 42 43 47 51 52 56 56
175 180 183 182 182 180 180 182 181 182 184 186 186 184 185 169 168 133 98 83 66 58 48 45 49 46 42 39 33 32 31 31 30 34 36 36 39 40 44 51 57 54 54
176 179 182 183 184 183 185 184 184 185 186 191 196 196 191 191 187 195 198 161 97 58 57 40 37 41 38 38 38 32 30 31 31 31 33 35 38 41 42 46 52 55 55
178 178 178 185 187 185 184 186 188 192 192 193 201 210 217 221 214 206 218 216 191 129 33 52 30 29 33 32 34 33 32 33 28 27 27 32 34 40 41 42 47 53 47
180 179 182 186 187 186 186 189 192 197 201 201 207 212 220 227 235 231 232 234 236 219 221 302 33 23 21 26 28 29 33 31 27 23 22 28 33 39 40 41 47 55 48
180 180 184 187 188 189 190 192 196 200 204 210 217 218 220 223 231 240 238 238 237 244 247 248 277 328 358 17 20 25 27 27 30 27 21 24 29 38 45 40 43 51 51
179 184 188 191 192 193 195 195 199 202 208 211 218 225 227 224 228 230 240 240 239 239 246 255 261 272 294 315 353 11 15 16 28 27 20 17 26 32 46 46 46 51 52